This is the latest recevied weather packets stored in our database for station/object SHLBYV-WX. If no packets are shown the sender has not sent any weather packets the latest 10 day(s).
| Time | Temp. | Humidity | Pressure | Rain* | Wind** | Luminosity | Snow |
|---|---|---|---|---|---|---|---|
| 1777970750 | 10.56° C | 74% | 972.7 hPa | 0 mm | - | - | - |
| 1777969870 | 11.11° C | 78% | 971.9 hPa | 0 mm | - | - | - |
| 1777968951 | 11.11° C | 78% | 971.9 hPa | 0 mm | - | - | - |
| 1777968084 | 11.11° C | 64% | 971.9 hPa | 0 mm | - | - | - |
| 1777967152 | 11.67° C | 75% | 971.5 hPa | 0 mm | - | - | - |
| 1777966272 | 11.67° C | 75% | 971.5 hPa | 0 mm | - | - | - |
| 1777965352 | 12.22° C | 75% | 971.5 hPa | 0 mm | - | - | - |
| 1777964486 | 12.78° C | 75% | 971.5 hPa | 0 mm | - | - | - |
| 1777963551 | 12.78° C | 77% | 971.8 hPa | 0 mm | - | - | - |
| 1777962668 | 12.78° C | 77% | 971.3 hPa | 0 mm | - | - | - |
| 1777961753 | 13.33° C | 77% | 971.3 hPa | 0 mm | - | - | - |
| 1777960899 | 13.89° C | 77% | 971.3 hPa | 0 mm | - | - | - |
| 1777959952 | 13.89° C | 76% | 972.3 hPa | 0 mm | - | - | - |
| 1777959075 | 14.44° C | 68% | 971 hPa | 0 mm | - | - | - |
| 1777958151 | 15° C | 68% | 971 hPa | 0 mm | - | - | - |
| 1777957285 | 15° C | 68% | 971 hPa | 0 mm | - | - | - |
| 1777956351 | 15° C | 71% | 970.4 hPa | 0 mm | - | - | - |
| 1777955474 | 15.56° C | 70% | 970.4 hPa | 0 mm | - | - | - |
| 1777954551 | 15.56° C | 70% | 970.9 hPa | 0 mm | - | - | - |
| 1777953689 | 15.56° C | 70% | 970.9 hPa | 0 mm | - | - | - |
| 1777952748 | 16.11° C | 63% | 970.7 hPa | 0 mm | - | - | - |
| 1777951872 | 15.56° C | 64% | 970.7 hPa | 0 mm | - | - | - |
| 1777950951 | 16.11° C | 64% | 970.7 hPa | 0 mm | - | - | - |
| 1777950085 | 16.11° C | 64% | 970.7 hPa | 0 mm | - | - | - |
| 1777949152 | 16.11° C | 62% | 971.1 hPa | 0 mm | - | - | - |
* Rain latest hour (hover to see other rain measurements)
** Current wind speed in m/s (hover to see current wind gust speed)